Overview Statistics Trail Chart Weather Telemetry Raw packets
 

This is the latest recevied weather packets stored in our database for station/object N7WSS. If no packets are shown the sender has not sent any weather packets the latest 10 day(s).

<< 34 35 36 37 38 39 40 >>
Time Temp. Humidity Pressure Rain* Wind** Luminosity Snow
1788397024 31.67° C 44% 1013.2 hPa 0 mm - - -
1788396719 32.22° C 44% 1013.2 hPa 0 mm - - -
1788396415 31.67° C 44% 1013.2 hPa 0 mm - - -
1788396109 31.67° C 44% 1013.5 hPa 0 mm - - -
1788395805 32.22° C 43% 1013.2 hPa 0 mm - - -
1788395501 32.22° C 42% 1013.6 hPa 0 mm - - -
1788395196 32.22° C 43% 1013.5 hPa 0 mm - - -
1788394890 31.11° C 45% 1013.3 hPa 0 mm - - -
1788394585 30° C 47% 1013.6 hPa 0 mm - - -
1788394284 30° C 48% 1013.2 hPa 0 mm - - -
1788393981 30° C 49% 1013.7 hPa 0 mm - - -
1788393680 30° C 50% 1013.3 hPa 0 mm - - -
1788393379 30° C 50% 1013.5 hPa 0 mm - - -
1788393075 30° C 50% 1013.5 hPa 0 mm - - -
1788392774 30° C 47% 1013.5 hPa 0 mm - - -
1788392473 30° C 48% 1013.5 hPa 0 mm - - -
1788392168 30° C 48% 1013.6 hPa 0 mm - - -
1788391868 30.56° C 47% 1013.2 hPa 0 mm - - -
1788391562 30.56° C 46% 1013.3 hPa 0 mm - - -
1788391262 31.11° C 45% 1013.5 hPa 0 mm - - -
1788390962 31.67° C 44% 1013.6 hPa 0 mm - - -
1788390661 31.67° C 44% 1013.7 hPa 0 mm - - -
1788390362 31.67° C 45% 1013.9 hPa 0 mm - - -
1788390061 30.56° C 48% 1013.7 hPa 0 mm - - -
1788389756 30.56° C 47% 1013.9 hPa 0 mm - - -

* Rain latest hour (hover to see other rain measurements)
** Current wind speed in m/s (hover to see current wind gust speed)